TimeEDT,TemperatureF,Dew PointF,Humidity,Sea Level PressureIn,VisibilityMPH,Wind Direction,Wind SpeedMPH,Gust SpeedMPH,PrecipitationIn,Events,Conditions,WindDirDegrees,DateUTC
12:53 AM,64.9,57.0,75,30.17,10.0,SE,3.5,-,N/A,,Clear,140,2013-06-22 04:53:00
1:53 AM,62.1,57.0,84,30.17,10.0,Calm,Calm,-,N/A,,Clear,0,2013-06-22 05:53:00
2:53 AM,64.0,55.9,75,30.14,10.0,South,6.9,-,N/A,,Clear,170,2013-06-22 06:53:00
3:53 AM,64.9,57.0,75,30.13,10.0,South,4.6,-,N/A,,Clear,170,2013-06-22 07:53:00
4:53 AM,64.0,55.9,75,30.12,10.0,South,8.1,-,N/A,,Clear,170,2013-06-22 08:53:00
5:53 AM,64.0,55.9,75,30.12,10.0,SSE,6.9,-,N/A,,Clear,160,2013-06-22 09:53:00
6:53 AM,64.9,57.0,75,30.13,10.0,South,5.8,-,N/A,,Clear,170,2013-06-22 10:53:00
7:53 AM,69.1,57.9,68,30.14,10.0,SSW,8.1,-,N/A,,Clear,200,2013-06-22 11:53:00
8:53 AM,75.9,60.1,58,30.14,10.0,SW,10.4,-,N/A,,Clear,220,2013-06-22 12:53:00
9:53 AM,78.1,61.0,56,30.15,10.0,SW,13.8,19.6,N/A,,Clear,220,2013-06-22 13:53:00
10:53 AM,81.0,64.0,56,30.16,10.0,SW,6.9,-,N/A,,Clear,220,2013-06-22 14:53:00
11:53 AM,82.9,64.9,54,30.14,10.0,SW,10.4,-,N/A,,Clear,220,2013-06-22 15:53:00
12:53 PM,84.9,64.9,51,30.13,10.0,SSW,11.5,-,N/A,,Clear,210,2013-06-22 16:53:00
1:53 PM,86.0,64.9,49,30.13,10.0,SW,9.2,-,N/A,,Clear,230,2013-06-22 17:53:00
2:53 PM,86.0,66.0,51,30.12,10.0,SSW,9.2,-,N/A,,Scattered Clouds,210,2013-06-22 18:53:00
3:53 PM,86.0,66.0,51,30.09,10.0,SSW,8.1,-,N/A,,Partly Cloudy,200,2013-06-22 19:53:00
4:53 PM,86.0,64.9,49,30.06,10.0,SW,10.4,-,N/A,,Clear,220,2013-06-22 20:53:00
5:53 PM,84.9,64.9,51,30.03,10.0,South,10.4,-,N/A,,Clear,190,2013-06-22 21:53:00
6:53 PM,82.9,64.9,54,30.05,10.0,SSW,5.8,-,N/A,,Clear,200,2013-06-22 22:53:00
7:53 PM,82.0,64.0,54,30.04,10.0,SSW,5.8,-,N/A,,Clear,210,2013-06-22 23:53:00
8:53 PM,80.1,63.0,56,30.04,10.0,SSW,6.9,-,N/A,,Clear,200,2013-06-23 00:53:00
9:53 PM,78.1,63.0,60,30.06,10.0,SSW,4.6,-,N/A,,Clear,200,2013-06-23 01:53:00
10:53 PM,75.9,63.0,64,30.09,10.0,SSW,3.5,-,N/A,,Clear,210,2013-06-23 02:53:00
11:53 PM,72.0,64.0,76,30.09,10.0,Calm,Calm,-,N/A,,Partly Cloudy,0,2013-06-23 03:53:00